Location: Hiram
(41.3130°N, 81.1440°W)
Time: 03:58:35
(UTC-05:00)

Daily predictions for brighter satellites

Satellite Brightness Start Highest point End
(mag) Time Altitude Azimuth Time Altitude Azimuth Time Altitude Azimuth
Cosmos 2369 Rocket 4.3 03:29:05 23° NE 03:29:05 23° NE 03:31:13 10° NE
Okean O Rocket 4.4 03:57:18 10° NNE 03:57:38 12° NNE 03:57:38 12° NNE
ATLAS 5 CENTAUR R/B 3.5 04:04:33 30° NE 04:04:33 30° NE 04:07:15 10° NE
Cosmos 1943 Rocket 3.0 04:10:09 47° ENE 04:10:09 47° ENE 04:14:39 10° NNE
CZ-4B R/B 3.6 04:11:56 10° NNE 04:16:47 61° ENE 04:16:47 61° ENE
Lacrosse 5 2.9 04:19:12 44° ENE 04:19:12 44° ENE 04:22:44 10° NE
USA 234 3.4 04:18:31 10° NE 04:25:01 64° SE 04:26:03 57° S
Cosmos 1452 Rocket 4.4 04:36:33 30° SSE 04:38:48 48° ESE 04:43:52 10° NNE
ADEOS II 2.2 04:36:17 10° N 04:40:44 63° N 04:40:44 63° N
Meteor 1-26 Rocket 4.5 04:46:40 10° S 04:52:18 67° E 04:57:52 10° NNE
PAYLOAD B 4.5 04:47:55 10° N 04:52:34 51° NW 04:52:34 51° NW
Cosmos 407 Rocket 3.4 04:54:00 75° WSW 04:54:01 75° WSW 04:59:19 10° S
Okean-O 2.9 04:53:16 10° NNE 04:57:42 65° ESE 04:59:52 29° S
Tiangong 1 3.3 05:00:17 24° E 05:00:17 24° E 05:01:41 10° E
Cosmos 676 Rocket 4.0 04:53:39 10° NNW 04:58:59 85° ENE 05:04:19 10° SSE
CZ-4B DEB 4.4 04:57:25 10° N 05:02:35 50° WNW 05:02:35 50° WNW
Cosmos 1244 Rocket 4.4 04:57:50 10° N 05:04:08 89° E 05:10:17 10° S
Meteor 1-31 Rocket 2.8 05:02:21 10° NNE 05:06:16 78° E 05:06:42 67° SSE
Cosmos 2219 4.0 05:01:37 10° NNW 05:07:11 52° ENE 05:12:40 10° SE
CZ-4C R/B 2.2 05:06:47 31° SSW 05:09:22 74° ESE 05:15:16 10° NE
Cosmos 2369 Rocket 3.4 05:10:53 26° NW 05:10:53 26° NW 05:14:48 10° N
Cosmos 1140 Rocket 3.8 05:07:03 10° NNW 05:12:16 68° ENE 05:17:29 10° SSE
Cosmos 1656 Rocket 3.7 05:09:36 19° SSW 05:13:45 83° ESE 05:19:28 10° NNE
Okean 2 Rocket 3.5 05:10:58 10° N 05:15:21 63° E 05:19:42 10° SSE
Cosmos 614 Rocket 4.5 05:13:58 10° NNW 05:19:01 59° ENE 05:24:04 10° SSE
Cosmos 1703 Rocket 3.5 05:22:54 45° SW 05:23:51 56° W 05:28:09 10° N
SJ-6F 4.4 05:19:56 10° NNE 05:24:06 84° ESE 05:28:12 10° SSW
GEOS 3 Rocket 4.0 05:21:14 10° S 05:25:54 37° WSW 05:26:26 36° WSW
Feng Yun 1-1 Rocket 4.3 05:21:51 10° N 05:27:42 73° WNW 05:33:35 10° SSW
S3M 4.0 05:23:58 10° S 05:30:19 88° E 05:36:38 10° N
Cosmos 1553 Rocket 3.9 05:31:24 10° S 05:37:35 78° W 05:43:55 10° N
ATLAS CENTAUR R/B 4.3 05:37:25 24° W 05:40:59 36° SW 05:56:10 10° S
Cosmos 1850 Rocket 4.1 05:36:01 10° NNW 05:41:23 79° ENE 05:46:41 10° SSE
ERS-2 4.2 05:39:09 10° NNW 05:40:04 14° NNW 05:40:04 14° NNW
Meteor 2-10 Rocket 3.8 05:40:23 15° SW 05:44:11 41° WNW 05:48:59 10° N
CZ-4B R/B 4.3 05:40:30 10° N 05:44:13 39° WNW 05:46:30 21° SW
ATLAS 5 CENTAUR R/B 3.2 05:46:07 20° WNW 05:47:23 22° NW 05:51:27 10° NNE
Cosmos 1954 Rocket 4.3 05:43:27 10° NNW 05:48:27 43° WSW 05:53:26 10° S
COSMO-SKYMED 1 2.5 05:45:56 10° S 05:50:14 74° WSW 05:54:36 10° NNW
Radarsat Rocket 4.3 05:43:50 10° NNE 05:51:09 86° WNW 05:57:32 10° SSW
Ariane Rocket 3.7 05:47:36 10° NNE 05:52:38 57° E 05:57:35 10° S
Cosmos 1943 Rocket 3.3 05:51:42 21° WNW 05:53:20 24° NW 05:57:46 10° N
Cosmos 1420 Rocket 4.0 05:50:19 10° SSW 05:55:24 57° WNW 06:00:31 10° NNE
IDEFIX/ARIANE 42P 4.5 05:51:19 10° NNE 05:56:01 33° E 06:00:39 10° SSE
NOAA 6 4.1 05:51:10 10° N 05:56:14 57° WNW 06:01:14 10° SSW
Lacrosse 5 rocket 3.0 05:53:19 10° NNW 05:56:22 25° NE 05:59:23 10° E
Cosmos 2221 Rocket 4.3 05:52:26 10° SW 05:56:33 33° WNW 06:00:40 10° NNW
Meteor 1-28 Rocket 3.0 05:56:09 10° S 05:59:51 77° WSW 06:03:37 10° NNW
Lacrosse 5 3.0 05:58:26 18° WNW 06:01:03 28° NNW 06:05:24 10° NNE
Meteor 1-20 Rocket 4.3 05:58:30 10° NNW 06:04:06 58° W 06:09:33 10° S
USA 234 3.7 06:01:44 10° NE 06:07:49 44° NNW 06:13:26 12° W
Cosmos 1709 Rocket 4.3 06:02:46 10° N 06:08:53 71° E 06:15:00 10° SSE
Thor Agena Rocket 4.4 06:07:54 10° SSW 06:12:15 27° W 06:16:35 10° NW
Okean 1-7 4.0 06:09:12 10° SW 06:12:44 25° WNW 06:16:15 10° NNW
CSL-04 Rocket 3.9 06:07:51 10° NNE 06:13:15 77° ESE 06:18:42 10° S
Abrixas 4.4 06:12:25 11° NW 06:14:24 19° N 06:16:35 10° NE
Cosmos 1782 3.2 06:11:51 10° SSW 06:15:35 41° WNW 06:19:23 10° N
ADEOS II 3.9 06:19:05 10° NW 06:20:24 11° WNW 06:21:41 10° WNW
Cosmos 1602 3.9 06:17:46 10° N 06:21:45 84° E 06:25:42 10° S
Cosmos 2315 Rocket 4.2 06:15:45 10° S 06:22:07 85° E 06:28:30 10° N
Cosmos 1606 3.1 06:19:58 10° SSW 06:23:40 42° WNW 06:27:24 10° N
Cosmos 2369 4.2 06:21:24 10° S 06:26:58 65° ESE 06:32:34 10° NNE
Cosmos 1745 Rocket 4.4 06:21:34 10° NNW 06:27:09 37° W 06:32:41 10° SSW
Cosmos 1110 Rocket 4.1 06:23:05 10° SSW 06:28:15 85° ESE 06:33:27 10° NNE
Okean-O 4.4 06:31:37 10° NW 06:33:38 13° WNW 06:35:39 10° W
Tiangong 1 1.1 06:31:54 10° W 06:34:48 62° N 06:37:43 10° E
ATLAS 3B R/B 2.9 06:27:27 10° SW 06:35:02 73° NW 06:42:20 10° NNE
Meteor 2-6 Rocket 4.4 06:30:17 10° SSW 06:35:27 47° WNW 06:40:41 10° N
Cosmos 1300 Rocket 3.5 06:32:01 10° NNW 06:36:27 73° W 06:40:48 10° S
Cosmos 2297 Rocket 2.7 06:31:08 10° NNW 06:36:47 67° ENE 06:42:23 10° SSE
SMAP 3.8 06:32:21 10° NNE 06:36:58 59° E 06:41:32 10° S
Cosmos 1346 Rocket 4.2 06:36:28 10° SSE 06:40:21 46° E 06:44:15 10° NNE
